Joliet, IL

3:21 PM CDT on April 30, 2017 (GMT -0500)
Joliet Regional

Weather History for KJOT - January, 2013

Change the Weather History Date:

Monday, January 21, 2013

  Actual Average (KARR) Record (KARR)
Temperature  
Mean Temperature 10 °F -  
Max Temperature 15 °F 25 °F 59 °F (2017)
Min Temperature 4 °F 11 °F -14 °F (2000)
Degree Days  
Heating Degree Days 56    
Moisture  
Dew Point -1 °F    
Average Humidity 63    
Maximum Humidity 87    
Minimum Humidity 48    
Precipitation  
Precipitation 0.00 in - - ()
Sea Level Pressure  
Sea Level Pressure 30.21 in    
Wind  
Wind Speed 11 mph (West)    
Max Wind Speed 18 mph    
Max Gust Speed 25 mph    
Visibility 9 miles    
Events Snow    
Averages and records for this station are not official NWS values.
T = Trace of Precipitation, MM = Missing Value Source: NWS Daily Summary

Daily Weather History Graph

Daily Weather History Graph

Search for Another Location

Airport or City:

Trip Planner

Search our weather history database for the weather conditions in past years. The results will help you decide how hot, cold, wet, or windy it might be!

Date:

Astronomy

Jan. 21, 2013 Rise Set
Actual Time 7:13 AM CST 4:55 PM CST
Civil Twilight 6:43 AM CST 5:25 PM CST
Nautical Twilight 6:09 AM CST 5:59 PM CST
Astronomical Twilight 5:36 AM CST 6:32 PM CST
Moon 12:34 PM CST (1/21) 2:41 AM CST (1/21)
Length of Visible Light 10h 42m
Length of Day
9h 41m
Waxing Gibbous, 75% of the Moon is Illuminated
Jan 21
Waxing Gibbous
Jan 26
Full
Feb 3
Last Quarter
Feb 10
New
Feb 17
First Quarter

Hourly Weather History & Observations

Time (CST) Temp. Windchill Dew Point Humidity Pressure Visibility Wind Dir Wind Speed Gust Speed Precip Events Conditions
12:15 AM 15.6 °F 4.0 °F 4.8 °F 62% 30.20 in 10.0 mi West 9.2 mph - N/A   Overcast
12:35 AM 15.1 °F 3.3 °F 3.2 °F 59% 30.19 in 10.0 mi West 9.2 mph 17.3 mph N/A   Overcast
12:55 AM 14.7 °F 3.8 °F 3.2 °F 60% 30.19 in 10.0 mi West 8.1 mph - N/A   Overcast
1:15 AM 14.0 °F 2.0 °F 3.2 °F 62% 30.19 in 10.0 mi West 9.2 mph - N/A   Overcast
1:35 AM 13.5 °F 3.3 °F 3.9 °F 66% 30.19 in 10.0 mi WSW 6.9 mph - N/A   Scattered Clouds
1:55 AM 12.9 °F 1.6 °F 4.5 °F 69% 30.19 in 10.0 mi WSW 8.1 mph - N/A   Clear
2:15 AM 12.9 °F 0.7 °F 4.8 °F 70% 30.19 in 10.0 mi West 9.2 mph - N/A   Clear
2:35 AM 12.9 °F 2.6 °F 5.5 °F 72% 30.19 in 10.0 mi WSW 6.9 mph 16.1 mph N/A   Mostly Cloudy
2:55 AM 12.6 °F -2.7 °F 4.1 °F 69% 30.18 in 10.0 mi West 13.8 mph 20.7 mph N/A   Mostly Cloudy
3:15 AM 12.7 °F -0.4 °F 5.0 °F 71% 30.17 in 10.0 mi West 10.4 mph 16.1 mph N/A   Overcast
3:35 AM 12.9 °F -2.2 °F 4.1 °F 68% 30.16 in 10.0 mi West 13.8 mph 18.4 mph N/A   Overcast
3:55 AM 12.7 °F 1.4 °F 5.4 °F 72% 30.16 in 10.0 mi West 8.1 mph 18.4 mph N/A   Overcast
4:15 AM 12.2 °F 0.7 °F 7.7 °F 82% 30.16 in 2.5 mi WSW 8.1 mph 16.1 mph N/A Snow Light Snow
4:35 AM 12.2 °F 0.7 °F 7.3 °F 81% 30.15 in 5.0 mi WSW 8.1 mph - N/A   Haze
4:55 AM 12.2 °F -0.2 °F 7.7 °F 82% 30.14 in 4.0 mi WSW 9.2 mph - N/A Snow Light Snow
5:15 AM 12.2 °F 1.7 °F 8.2 °F 84% 30.14 in 3.0 mi WSW 6.9 mph - N/A Snow Light Snow
5:35 AM 12.2 °F 0.7 °F 8.1 °F 83% 30.14 in 4.0 mi WSW 8.1 mph - N/A Snow Light Snow
5:55 AM 12.2 °F -1.0 °F 8.4 °F 85% 30.15 in 1.8 mi WSW 10.4 mph - N/A Snow Light Snow
6:15 AM 11.8 °F -0.7 °F 8.6 °F 87% 30.14 in 0.5 mi WSW 9.2 mph - N/A Snow Light Snow
6:35 AM 11.3 °F -1.3 °F 7.0 °F 83% 30.14 in 3.0 mi WSW 9.2 mph 23.0 mph N/A Snow Light Snow
6:55 AM 10.9 °F -1.8 °F 6.6 °F 83% 30.15 in 1.2 mi West 9.2 mph 19.6 mph N/A Snow Light Snow
7:15 AM 10.6 °F -5.8 °F 6.6 °F 84% 30.16 in 1.0 mi West 15.0 mph 20.7 mph N/A Snow Light Snow
7:35 AM 9.3 °F -3.8 °F 1.4 °F 70% 30.17 in 7.0 mi West 9.2 mph 19.6 mph N/A   Overcast
7:55 AM 9.3 °F -5.4 °F 0.5 °F 67% 30.17 in 7.0 mi West 11.5 mph 20.7 mph N/A   Overcast
8:15 AM 8.2 °F -7.5 °F -1.3 °F 65% 30.17 in 10.0 mi West 12.7 mph 20.7 mph N/A   Mostly Cloudy
8:35 AM 8.6 °F -7.0 °F -1.1 °F 65% 30.18 in 10.0 mi West 12.7 mph 23.0 mph N/A   Clear
8:55 AM 7.7 °F -9.5 °F -1.5 °F 66% 30.19 in 7.0 mi West 15.0 mph 24.2 mph N/A   Clear
9:15 AM 8.4 °F -8.6 °F -1.1 °F 65% 30.19 in 10.0 mi West 15.0 mph 21.9 mph N/A   Clear
9:35 AM 8.2 °F -10.0 °F -1.8 °F 64% 30.20 in 10.0 mi West 17.3 mph 21.9 mph N/A   Clear
9:55 AM 8.4 °F -7.9 °F -2.0 °F 63% 30.20 in 10.0 mi West 13.8 mph 21.9 mph N/A   Scattered Clouds
10:15 AM 8.1 °F -8.4 °F -2.2 °F 63% 30.21 in 10.0 mi West 13.8 mph 23.0 mph N/A   Mostly Cloudy
10:35 AM 7.5 °F -9.1 °F -1.7 °F 66% 30.21 in 5.0 mi West 13.8 mph 20.7 mph N/A   Haze
10:55 AM 8.2 °F -8.2 °F -1.5 °F 65% 30.21 in 7.0 mi West 13.8 mph 20.7 mph N/A   Scattered Clouds
11:15 AM 8.4 °F -9.2 °F -2.6 °F 61% 30.21 in 10.0 mi West 16.1 mph 25.3 mph N/A   Scattered Clouds
11:35 AM 8.8 °F -8.7 °F -2.7 °F 60% 30.21 in 10.0 mi West 16.1 mph 21.9 mph N/A   Scattered Clouds
11:55 AM 8.6 °F -7.7 °F -2.9 °F 60% 30.21 in 10.0 mi West 13.8 mph 25.3 mph N/A   Scattered Clouds
12:15 PM 8.4 °F -8.6 °F -2.9 °F 60% 30.20 in 10.0 mi West 15.0 mph 20.7 mph N/A   Scattered Clouds
12:35 PM 9.3 °F -4.6 °F -3.5 °F 56% 30.20 in 10.0 mi West 10.4 mph 25.3 mph N/A   Scattered Clouds
12:55 PM 9.0 °F -7.3 °F -4.7 °F 54% 30.20 in 10.0 mi West 13.8 mph 25.3 mph N/A   Scattered Clouds
1:15 PM 9.3 °F -6.1 °F -4.2 °F 54% 30.20 in 10.0 mi West 12.7 mph 24.2 mph N/A   Clear
1:35 PM 9.5 °F -7.8 °F -4.7 °F 53% 30.20 in 10.0 mi West 16.1 mph 24.2 mph N/A   Clear
1:55 PM 10.2 °F -7.4 °F -4.9 °F 51% 30.19 in 10.0 mi West 17.3 mph 25.3 mph N/A   Clear
2:15 PM 10.6 °F -7.4 °F -5.6 °F 48% 30.19 in 10.0 mi West 18.4 mph 23.0 mph N/A   Clear
2:35 PM 10.4 °F -5.4 °F -5.8 °F 48% 30.20 in 10.0 mi West 13.8 mph 20.7 mph N/A   Clear
2:55 PM 10.4 °F -6.0 °F -5.8 °F 48% 30.21 in 10.0 mi West 15.0 mph 25.3 mph N/A   Clear
3:15 PM 10.8 °F -3.6 °F -5.4 °F 48% 30.21 in 10.0 mi West 11.5 mph 21.9 mph N/A   Clear
3:35 PM 10.4 °F -6.0 °F -6.0 °F 48% 30.21 in 10.0 mi West 15.0 mph 23.0 mph N/A   Clear
3:55 PM 10.2 °F -5.0 °F -5.6 °F 49% 30.21 in 10.0 mi West 12.7 mph 21.9 mph N/A   Clear
4:15 PM 9.9 °F -6.7 °F -5.8 °F 49% 30.22 in 10.0 mi West 15.0 mph 20.7 mph N/A   Clear
4:35 PM 9.3 °F -4.6 °F -6.2 °F 50% 30.22 in 10.0 mi West 10.4 mph 24.2 mph N/A   Clear
4:55 PM 8.6 °F -5.5 °F -6.2 °F 51% 30.22 in 10.0 mi West 10.4 mph 17.3 mph N/A   Clear
5:15 PM 8.4 °F -5.7 °F -5.6 °F 53% 30.22 in 10.0 mi West 10.4 mph - N/A   Clear
5:35 PM 8.1 °F -8.4 °F -5.8 °F 53% 30.22 in 10.0 mi West 13.8 mph 20.7 mph N/A   Clear
5:55 PM 7.7 °F -8.2 °F -5.4 °F 55% 30.23 in 10.0 mi West 12.7 mph 18.4 mph N/A   Clear
6:15 PM 7.3 °F -7.9 °F -5.8 °F 55% 30.23 in 10.0 mi WSW 11.5 mph 17.3 mph N/A   Clear
6:35 PM 6.8 °F -8.6 °F -5.8 °F 56% 30.23 in 10.0 mi West 11.5 mph 20.7 mph N/A   Clear
6:55 PM 6.8 °F -8.6 °F -6.0 °F 56% 30.24 in 10.0 mi West 11.5 mph 20.7 mph N/A   Clear
7:15 PM 6.4 °F -8.2 °F -5.6 °F 58% 30.24 in 10.0 mi West 10.4 mph 19.6 mph N/A   Clear
7:35 PM 6.3 °F -8.4 °F -5.3 °F 59% 30.25 in 10.0 mi West 10.4 mph 16.1 mph N/A   Clear
7:55 PM 5.9 °F -10.5 °F -5.6 °F 59% 30.25 in 10.0 mi West 12.7 mph 17.3 mph N/A   Clear
8:15 PM 6.8 °F -7.8 °F -5.8 °F 56% 30.26 in 10.0 mi West 10.4 mph - N/A   Clear
8:35 PM 5.7 °F -9.9 °F -5.8 °F 59% 30.26 in 10.0 mi West 11.5 mph 18.4 mph N/A   Clear
8:55 PM 5.5 °F -11.6 °F -6.2 °F 59% 30.27 in 10.0 mi West 13.8 mph 20.7 mph N/A   Clear
9:15 PM 5.2 °F -10.6 °F -6.0 °F 60% 30.27 in 10.0 mi West 11.5 mph 17.3 mph N/A   Clear
9:35 PM 5.0 °F -10.0 °F -5.8 °F 61% 30.27 in 10.0 mi West 10.4 mph - N/A   Clear
9:55 PM 4.6 °F -9.5 °F -5.6 °F 63% 30.27 in 10.0 mi West 9.2 mph - N/A   Clear
10:15 PM 4.6 °F -7.4 °F -5.4 °F 63% 30.29 in 10.0 mi West 6.9 mph - N/A   Clear
10:35 PM 4.5 °F -7.6 °F -5.1 °F 65% 30.28 in 10.0 mi WSW 6.9 mph - N/A   Clear
10:55 PM 4.1 °F -6.7 °F -4.9 °F 66% 30.28 in 10.0 mi WSW 5.8 mph - N/A   Clear
11:15 PM 5.0 °F -5.6 °F -4.0 °F 66% 30.29 in 10.0 mi WSW 5.8 mph - N/A   Clear
11:35 PM 4.1 °F -8.0 °F -4.5 °F 67% 30.28 in 10.0 mi West 6.9 mph - N/A   Clear
11:55 PM 4.1 °F -6.7 °F -4.4 °F 68% 30.28 in 10.0 mi West 5.8 mph - N/A   Clear